Regional Weather Roundup
Issued by NWS

Home | Current Version | Previous Version | Text Only | Print | Product List | Glossary Off
Versions: 1 2 3 4 5 6 7 8 9 10 11 12 13 14 15 16 17 18 19 20 21 22 23 24 25 26 27 28 29 30 31 32 33 34 35 36 37 38 39 40 41 42 43 44 45 46 47 48 49 50

000
ASUS43 KFSD 020102
RWRSD

WEATHER ROUNDUP FOR SOUTH DAKOTA
NATIONAL WEATHER SERVICE SIOUX FALLS SD
800 PM CDT TUE SEP 01 2015

NOTE: "FAIR" INDICATES FEW OR NO CLOUDS BELOW 12,000 FEET WITH NO
SIGNIFICANT WEATHER AND/OR OBSTRUCTIONS TO VISIBILITY.


SDZ001>005-009-010-012>017-020200-
NORTHWEST AND NORTH CENTRAL SOUTH DAKOTA

CITY           SKY/WX    TMP DP  RH WIND       PRES   REMARKS
BUFFALO          N/A     83  59  44 E7        29.77R
FAITH            N/A     84  57  39 CALM      29.81R
MOBRIDGE       CLEAR     83  65  54 SE10      29.75R
$$

SDZ012>016-024>037-041>051-057-063-072>074-020200-
SOUTHWEST AND SOUTH CENTRAL SOUTH DAKOTA

CITY           SKY/WX    TMP DP  RH WIND       PRES   REMARKS
RAPID CTY ARPT CLEAR     78  61  55 NE5       29.85R
PIERRE         CLEAR     81  63  54 SE17      29.76R
CUSTER         CLEAR     77  35  21 CALM      30.02R
ELLSWORTH AFB  CLEAR     83  55  37 E3        29.85R
PHILIP         CLEAR     80  64  58 N10       29.77R
PINE RIDGE     CLEAR     83  46  27 NE5       29.85S
WINNER         FAIR      80  65  59 SE10      29.81F
$$

SDZ004>011-016>023-039-040-020200-
NORTHEAST SOUTH DAKOTA

CITY           SKY/WX    TMP DP  RH WIND       PRES   REMARKS
ABERDEEN       CLEAR     75  68  78 SE5       29.82R
WATERTOWN      PTCLDY    75  69  81 S9        29.87R
BROOKINGS      MOCLDY    72  61  68 SE15      29.89F
$$

SDZ017-020-022-023-036>040-048>070-020200-
SOUTHEAST SOUTH DAKOTA

CITY           SKY/WX    TMP DP  RH WIND       PRES   REMARKS
SIOUX FALLS    CLOUDY    75  71  87 E5        29.87F
HURON          CLEAR     76  69  79 SE8       29.82S
MITCHELL       CLEAR     75  71  87 SE5       29.83S
YANKTON        PTCLDY    81  72  74 SE5       29.82S
$$

ABBREVIATIONS USED IN REMARKS
   TC - TEMPERATURE IN CELSIUS
  WCI - WIND CHILL INDEX
   HX - HEAT INDEX
  VSB - VISIBILITY




USA.gov is the U.S. government's official web portal to all federal, state and local government web resources and services.